This is the latest recevied weather packets stored in our database for station/object PERPET. If no packets are shown the sender has not sent any weather packets the latest 10 day(s).
| Time | Temp. | Humidity | Pressure | Rain* | Wind** | Luminosity | Snow |
|---|---|---|---|---|---|---|---|
| 1777850264 | 21.67° C | - | 1010.9 hPa | 0 mm | - | - | - |
| 1777849964 | 21.67° C | - | 1010.7 hPa | 0 mm | - | - | - |
| 1777849664 | 21.67° C | - | 1010.9 hPa | 0 mm | - | - | - |
| 1777849365 | 21.67° C | - | 1011 hPa | 0 mm | - | - | - |
| 1777849064 | 21.67° C | - | 1011.1 hPa | 0 mm | - | - | - |
| 1777848765 | 21.67° C | - | 1011.1 hPa | 0 mm | - | - | - |
| 1777848464 | 21.11° C | - | 1011.2 hPa | 0 mm | - | - | - |
| 1777848165 | 20.56° C | - | 1011.2 hPa | 0 mm | - | - | - |
| 1777847864 | 20.56° C | - | 1011.3 hPa | 0 mm | - | - | - |
| 1777847564 | 20.56° C | - | 1011.4 hPa | 0 mm | - | - | - |
| 1777847264 | 20.56° C | - | 1011.5 hPa | 0 mm | - | - | - |
| 1777846965 | 20.56° C | - | 1011.5 hPa | 0 mm | - | - | - |
| 1777846664 | 20.56° C | - | 1011.5 hPa | 0 mm | - | - | - |
| 1777846364 | 20.56° C | - | 1011.6 hPa | 0 mm | - | - | - |
| 1777846064 | 20.56° C | - | 1011.6 hPa | 0 mm | - | - | - |
| 1777845764 | 20.56° C | - | 1011.6 hPa | 0 mm | - | - | - |
| 1777845464 | 20.56° C | - | 1011.7 hPa | 0 mm | - | - | - |
| 1777845164 | 21.11° C | - | 1011.7 hPa | 0 mm | - | - | - |
| 1777844864 | 21.67° C | - | 1011.7 hPa | 0 mm | - | - | - |
| 1777844564 | 21.67° C | - | 1011.6 hPa | 0 mm | - | - | - |
| 1777843964 | 22.22° C | - | 1011.6 hPa | 0 mm | - | - | - |
| 1777843364 | 22.22° C | - | 1011.7 hPa | 0 mm | - | - | - |
| 1777843065 | 22.22° C | - | 1011.7 hPa | 0 mm | - | - | - |
| 1777842764 | 22.22° C | - | 1011.7 hPa | 0 mm | - | - | - |
| 1777842464 | 22.22° C | - | 1011.8 hPa | 0 mm | - | - | - |
* Rain latest hour (hover to see other rain measurements)
** Current wind speed in m/s (hover to see current wind gust speed)